Regional Weather Roundup
Issued by NWS

Home | Current Version | Previous Version | Graphics & Text | Print | Product List | Glossary On
Versions: 1 2 3 4 5 6 7 8 9 10 11 12 13 14 15 16 17 18 19 20 21 22 23 24 25 26 27 28 29 30 31 32 33 34 35 36 37 38 39 40 41 42 43 44 45 46 47 48 49 50
000
ASUS43 KDMX 171101
RWRIA

WEATHER ROUNDUP FOR IOWA
NATIONAL WEATHER SERVICE DES MOINES IA
500 AM CST SUN DEC 17 2017

NOTE: "FAIR" INDICATES FEW OR NO CLOUDS BELOW 12,000 FEET WITH NO
SIGNIFICANT WEATHER AND/OR OBSTRUCTIONS TO VISIBILITY.

* - THESE STATIONS ARE NOT NWS STATIONS...THUS NOT UNDER NWS
QUALITY CONTROL.  THEY ALSO DO NOT REPORT WEATHER SUCH
AS PRECIPITATION OR FOG.

IAZ001>003-012>014-020>022-031>034-043>046-171200-
   NORTHWEST IOWA

CITY           SKY/WX    TMP DP  RH WIND       PRES   REMARKS
CARROLL *      PTCLDY    25  23  93 N9        30.00R WCI  15
CHEROKEE *     CLOUDY    27  27 100 NE6       30.02S FOG     WCI  20
LE MARS *      CLOUDY    27  25  93 NE7       30.02R WCI  19
ORANGE CITY *  CLOUDY    27  27 100 NE5       30.00S FOG     WCI  21
SHELDON *      FOG       25  25 100 NE12      30.00S VSB 1/2 WCI  14
SIOUX CITY     PTCLDY    26  24  92 CALM      30.04R
SPENCER        FOG       27  26  96 NE14      30.02F VSB 1   WCI  16
STORM LAKE *   FOG       27  27 100 NE20      30.00R VSB 1/4 WCI  13
$$

IAZ055>058-069>071-079>083-090>094-171200-
   SOUTHWEST IOWA

CITY           SKY/WX    TMP DP  RH WIND       PRES   REMARKS
ATLANTIC *     CLOUDY    30  27  86 NE6       29.96S WCI  24
AUDUBON *      CLOUDY    27  23  86 N6        29.98R WCI  20
CLARINDA *     CLOUDY    32  28  86 CALM        N/A
COUNCIL BLFS * CLOUDY    30  30 100 N8        29.96F WCI  23
CRESTON *      CLOUDY    32  27  80 NE6       29.95F WCI  26
HARLAN  *      CLOUDY    28  28 100 NE10      30.01R WCI  19
LAMONI         CLOUDY    40  26  57 S5        29.94F
RED OAK *      CLOUDY    32  28  86 NE6       29.95S WCI  26
SHENANDOAH *   CLOUDY    34  28  80 CALM      29.95F
$$

IAZ047>049-059>061-072>074-084-171200-
   CENTRAL IOWA

CITY           SKY/WX    TMP DP  RH WIND       PRES   REMARKS
AMES           CLOUDY    28  25  88 NE3       30.00R
ANKENY *       CLOUDY    28  25  86 NE5       29.99S WCI  23
BOONE *        CLOUDY    27  23  86 N8        29.98R WCI  18
CHARITON *     MOCLDY    32  27  80 CALM      29.94F
DES MOINES     CLOUDY    31  24  75 NE5       29.98S WCI  26
GRINNELL*      CLOUDY    29  25  86 E7        30.00S WCI  21
KNOXVILLE *    CLOUDY    30  25  80 NE7       29.95F WCI  23
MARSHALLTOWN   CLOUDY    28  26  92 E12       29.99S WCI  18
NEWTON *       MOCLDY    30  25  80 E9        29.98S WCI  22
PELLA *        MOCLDY    32  25  76 E3        29.98S
$$

IAZ004>006-015-016-023>025-035-036-171200-
   NORTH CENTRAL IOWA

CITY           SKY/WX    TMP DP  RH WIND       PRES   REMARKS
ALGONA *       CLOUDY    25  25 100 NE10      30.02S FOG     WCI  15
CLARION *      MOCLDY    23  23 100 NE7       30.02R WCI  15
ESTHERVILLE    CLOUDY    23  23 100 NE12      30.03S FOG     WCI  12
FORT DODGE *   CLOUDY    22  20  92 N8        30.02S WCI  12
MASON CITY     FOG       24  23  96 NE6       30.04R VSB 1/4 WCI  17
FOREST CITY *    N/A     23  21  93 NE3       30.03R
WEBSTER CITY * CLOUDY    23  21  93 NE6       29.99R WCI  16
IOWA FALLS *     N/A     26  24  94 NE7       30.01S WCI  18
$$

IAZ007>011-017>019-026>030-037>042-050>054-066-171200-
   NORTHEAST IOWA

CITY           SKY/WX    TMP DP  RH WIND       PRES   REMARKS
CEDAR RAPIDS   CLOUDY    29  27  92 E8        30.00F FOG     WCI  21
CHARLES CITY * CLOUDY    28  28 100 E12       30.03S FOG     WCI  18
CLINTON *      CLOUDY    29  28  96 E10       30.04F FOG     WCI  20
DECORAH *      CLOUDY    28  28 100 E8        30.03F FOG     WCI  20
DUBUQUE        CLOUDY    30  28  92 NE9       30.03F FOG     WCI  22
MONTICELLO *   CLOUDY    30  28  93 NE6       30.03S FOG     WCI  24
OELWEIN *      CLOUDY    30  30 100 E14       30.02F FOG     WCI  20
WATERLOO       CLOUDY    28  27  96 E8        30.03S FOG     WCI  20
$$

IAZ064-065-067-068-078-171200-
   EAST CENTRAL IOWA

CITY           SKY/WX    TMP DP  RH WIND       PRES   REMARKS
DAVENPORT      CLOUDY    30  26  85 E8        30.05S WCI  22
IOWA CITY      CLOUDY    32  27  81 E5        30.04S WCI  27
MT. PLEASANT * CLOUDY    31  24  76 NE6       29.98F WCI  25
MUSCATINE *    CLOUDY    30  27  86 CALM      30.03S
QUAD CITIES    CLOUDY    30  26  85 E8        30.03R WCI  22
$$

IAZ062-063-075>077-085>089-095>099-171200-
   SOUTHEAST IOWA

CITY           SKY/WX    TMP DP  RH WIND       PRES   REMARKS
BURLINGTON     CLOUDY    34  28  79 CALM      29.98F
FAIRFIELD *    CLOUDY    30  25  80 NE9       29.96F WCI  22
FORT MADISON * CLOUDY    39  28  65 S6        29.98F WCI  35
KEOKUK *       CLOUDY    43  27  52 S5        29.97F
OSKALOOSA *      N/A     30  25  80 E9        29.97F WCI  22
OTTUMWA        CLOUDY    31  24  75 NE8       29.96F WCI  23
WASHINGTON *   CLOUDY    30  28  93 E7        30.00F WCI  23
$$

ABBREVIATIONS USED IN REMARKS
   TC - TEMPERATURES IN CELSIUS
  WCI - WIND CHILL INDEX
   HX - HEAT INDEX
  VSB - VISIBILITY
$$





USA.gov is the U.S. government's official web portal to all federal, state and local government web resources and services.